AMOS-17

Last updated on Sun Jan 18 2026 00:02:48 GMT+0000 (Coordinated Universal Time)

1 44479U 19050A 26017.58730294 .00000126 00000+0 00000+0 0 9994 2 44479 0.0154 1.9741 0001228 290.2144 53.2420 1.00274012 23678
UTC large
Height (km)
Speed (km/s)
/
Latitude / Longitude
Inclination (degrees)
Orbital Period (minutes)
Azimuth
Elevation
Range (km)
Doppler Factor

Next 0 passes for location: London (51.5072 / 0.1276)

Sorry there are no passes over London.